Visibility
15.0 3.1 15.0 11.7 15.0 15.0 14.1 14.8 0.3 15.0 14.9 15.0 15.0 15.0 15.0 15.0 15.0 15.0 15.0 15.0 15.0 15.0 15.0 15.0 15.0 15.0 15.0 15.0 15.0 15.0 15.0 15.0 8.5 9.4 15.0 15.0 15.0 15.0 15.0 15.0 15.0 15.0 15.0 15.0
15.0 15.0 15.0 15.0 15.0 15.0 15.0 15.0 6.0 15.0 15.0 15.0 15.0 15.0 15.0 15.0 15.0 15.0 15.0 15.0 15.0 15.0 15.0 15.0 15.0 15.0 15.0 15.0 15.0 15.0 15.0 14.9 7.9 14.9 5.8 15.0 15.0 15.0 15.0 15.0 15.0 15.0 15.0 15.0
4.7 15.0 15.0 2.9 15.0 15.0 15.0 15.0 15.0 13.2 15.0 15.0 15.0 15.0 15.0 15.0 15.0 15.0 15.0 15.0 15.0 15.0 15.0 15.0 15.0 15.0 15.0 15.0 15.0 15.0 15.0 15.0 9.3 4.5 10.9 7.7 15.0 15.0 15.0 15.0 15.0 15.0 15.0 15.0
3.2 13.0 1.7 14.9 15.0 15.0 15.0 15.0 15.0 15.0 15.0 15.0 15.0 15.0 15.0 15.0 15.0 15.0 15.0 15.0 15.0 15.0 15.0 15.0 15.0 15.0 15.0 15.0 15.0 15.0 5.2 15.0 15.0 15.0 0.4 4.3 15.0 15.0 15.0 13.2 12.9 15.0 15.0 15.0
1.0 4.2 15.0 15.0 15.0 15.0 15.0 15.0 15.0 15.0 15.0 15.0 15.0 15.0 15.0 15.0 15.0 15.0 15.0 0.0 7.6 15.0 15.0 15.0 15.0 15.0 14.8 11.9 15.0 7.7 0.1 0.2 4.1 4.6 0.3 0.2 1.2 15.0 11.9 14.0 15.0 14.5 15.0 15.0
1.1 4.2 15.0 15.0 15.0 15.0 15.0 15.0 15.0 15.0 15.0 15.0 15.0 15.0 15.0 15.0 15.0 15.0 15.0 1.8 0.1 0.0 15.0 14.0 7.0 15.0 0.1 0.0 0.1 0.1 0.2 1.0 13.7 0.3 0.1 0.4 15.0 15.0 14.7 15.0 14.8 8.8 15.0 8.6
13.8 10.0 13.5 15.0 15.0 15.0 15.0 15.0 15.0 15.0 15.0 15.0 15.0 15.0 15.0 15.0 7.1 15.0 5.4 6.7 15.0 1.9 0.0 0.0 15.0 15.0 0.0 0.0 0.1 0.9 15.0 1.6 0.6 0.2 0.1 0.7 14.0 6.8 9.9 13.5 9.8 11.2 13.1 13.2
8.8 3.4 1.2 15.0 15.0 15.0 15.0 15.0 15.0 15.0 15.0 15.0 15.0 0.1 0.1 0.1 0.7 15.0 15.0 15.0 15.0 15.0 0.0 0.0 2.7 2.1 0.1 0.1 0.5 14.6 3.9 0.5 0.1 0.1 0.1 0.3 14.6 14.8 11.5 8.4 9.1 11.0 10.2 7.4
12.9 13.8 15.0 15.0 15.0 15.0 15.0 15.0 15.0 15.0 15.0 15.0 10.0 0.0 0.1 0.9 4.6 10.0 15.0 15.0 15.0 15.0 15.0 6.1 14.0 4.3 0.1 0.2 15.0 1.6 0.2 0.1 0.1 0.1 0.3 2.1 15.0 10.2 9.4 11.1 15.0 10.8 10.7 8.9
10.7 15.0 15.0 15.0 15.0 15.0 15.0 15.0 15.0 15.0 15.0 15.0 0.0 0.1 0.1 0.1 0.1 15.0 15.0 15.0 15.0 15.0 15.0 15.0 15.0 15.0 15.0 15.0 7.9 0.9 0.2 0.1 0.1 0.3 0.3 6.6 15.0 13.3 15.0 15.0 15.0 15.0 15.0 15.0
15.0 15.0 15.0 15.0 15.0 15.0 15.0 15.0 15.0 15.0 15.0 15.0 15.0 15.0 6.9 15.0 15.0 15.0 15.0 15.0 15.0 15.0 15.0 15.0 15.0 15.0 15.0 15.0 14.1 0.2 0.1 0.2 0.3 0.3 0.5 7.4 15.0 15.0 15.0 15.0 15.0 15.0 15.0 15.0
7.5 15.0 15.0 15.0 15.0 15.0 15.0 15.0 15.0 15.0 15.0 15.0 15.0 15.0 15.0 15.0 15.0 15.0 15.0 15.0 15.0 15.0 15.0 15.0 15.0 15.0 15.0 15.0 14.2 10.6 7.5 0.3 0.3 0.3 0.3 12.5 13.9 6.5 12.3 15.0 15.0 15.0 15.0 15.0
15.0 15.0 15.0 15.0 15.0 15.0 15.0 15.0 15.0 15.0 15.0 15.0 15.0 15.0 15.0 15.0 15.0 15.0 15.0 15.0 15.0 15.0 15.0 15.0 15.0 15.0 12.9 14.0 0.4 0.5 1.6 0.3 0.2 0.2 0.2 0.4 0.6 0.8 0.7 15.0 15.0 15.0 15.0 15.0
15.0 15.0 15.0 15.0 15.0 15.0 15.0 15.0 15.0 15.0 15.0 15.0 15.0 15.0 15.0 15.0 15.0 15.0 15.0 15.0 15.0 15.0 15.0 15.0 15.0 12.5 15.0 11.6 3.7 0.1 1.0 0.4 0.5 0.3 0.3 0.3 0.5 1.0 15.0 15.0 15.0 15.0 15.0 15.0
15.0 15.0 15.0 15.0 15.0 15.0 15.0 15.0 15.0 15.0 15.0 15.0 15.0 15.0 15.0 15.0 15.0 15.0 15.0 15.0 15.0 15.0 15.0 15.0 15.0 4.8 1.4 0.1 0.2 0.1 6.1 0.6 0.3 0.3 0.4 0.7 5.3 3.1 15.0 15.0 15.0 15.0 15.0 15.0
15.0 15.0 15.0 15.0 15.0 15.0 15.0 15.0 15.0 15.0 15.0 15.0 15.0 15.0 15.0 15.0 15.0 15.0 15.0 15.0 15.0 15.0 15.0 15.0 12.5 0.8 0.1 0.1 0.2 0.2 0.6 0.4 1.8 3.8 2.0 2.3 1.9 8.9 15.0 15.0 15.0 15.0 15.0 15.0
15.0 15.0 15.0 15.0 15.0 15.0 15.0 15.0 15.0 15.0 15.0 15.0 15.0 15.0 15.0 15.0 15.0 15.0 15.0 15.0 9.0 0.1 15.0 13.0 0.1 0.1 0.1 0.1 1.0 0.9 0.6 5.3 7.2 6.0 7.1 10.0 11.5 15.0 15.0 15.0 15.0 10.5 15.0 15.0
15.0 15.0 15.0 15.0 15.0 15.0 15.0 15.0 15.0 15.0 15.0 15.0 10.5 0.1 0.0 0.2 10.5 10.5 0.1 0.1 0.0 0.0 0.1 0.1 0.2 0.2 0.2 0.2 4.5 6.6 6.1 8.9 8.5 8.1 12.1 13.7 15.0 15.0 15.0 15.0 15.0 15.0 15.0 15.0
15.0 15.0 15.0 15.0 15.0 15.0 15.0 15.0 15.0 6.5 6.4 0.1 0.0 0.0 0.0 0.0 0.0 0.0 0.1 0.5 6.8 5.4 0.1 1.0 8.7 6.8 11.5 10.1 10.5 7.3 14.9 11.4 14.8 15.0 15.0 15.0 15.0 15.0 15.0 15.0 15.0 15.0 15.0 1.9
15.0 15.0 15.0 15.0 15.0 15.0 6.9 0.1 0.0 0.0 0.0 0.0 0.0 0.0 0.0 0.0 0.1 0.3 9.7 12.0 15.0 14.5 15.0 15.0 15.0 15.0 15.0 14.9 11.9 12.1 11.6 9.5 15.0 15.0 15.0 15.0 15.0 15.0 15.0 15.0 15.0 15.0 13.4 6.9
13.4 9.0 0.0 0.0 0.0 0.0 0.1 0.2 0.0 0.1 0.3 0.1 0.1 0.0 0.1 0.1 6.5 15.0 14.9 9.0 8.3 8.2 15.0 12.9 15.0 14.8 15.0 15.0 15.0 14.9 15.0 15.0 15.0 9.9 15.0 15.0 14.5 5.6 3.8 5.7 9.1 5.1 5.5 4.9
2.1 0.0 0.0 0.0 0.8 10.9 0.1 0.1 0.1 0.0 0.0 0.0 0.0 0.1 0.1 0.1 0.9 13.2 0.0 14.6 15.0 15.0 15.0 14.8 15.0 15.0 15.0 15.0 15.0 15.0 12.6 15.0 15.0 15.0 11.2 15.0 3.2 2.6 4.9 4.0 2.8 4.4 4.5 4.4
10.0 9.3 10.7 15.0 13.9 0.1 1.4 0.4 0.1 0.0 0.0 0.1 0.1 0.2 10.1 11.7 13.0 14.7 7.1 15.0 15.0 15.0 15.0 15.0 15.0 15.0 15.0 15.0 15.0 6.2 9.1 3.6 3.0 5.5 7.6 3.1 13.5 2.9 2.5 2.9 3.3 3.3 3.4 4.5
15.0 11.3 15.0 15.0 15.0 15.0 0.0 0.0 0.1 0.2 0.7 15.0 0.4 13.9 14.9 14.8 15.0 15.0 15.0 15.0 15.0 1.8 14.0 15.0 15.0 15.0 15.0 3.6 1.4 3.5 2.4 1.6 1.9 1.8 4.6 5.5 1.6 0.9 2.4 2.5 3.4 3.9 4.8 7.5
15.0 15.0 15.0 15.0 15.0 14.6 15.0 15.0 15.0 15.0 15.0 15.0 15.0 15.0 15.0 15.0 15.0 15.0 15.0 15.0 15.0 15.0 2.1 15.0 15.0 15.0 1.0 1.0 3.4 9.5 3.7 3.3 3.2 2.4 1.7 1.0 2.4 3.4 15.0 7.3 4.5 6.5 5.5 2.8
15.0 15.0 15.0 15.0 15.0 10.9 15.0 15.0 15.0 15.0 15.0 0.7 13.4 0.8 0.1 1.5 15.0 15.0 15.0 15.0 15.0 14.4 6.8 8.0 15.0 15.0 3.4 5.1 4.4 8.5 12.1 15.0 15.0 15.0 14.9 10.0 14.4 3.9 4.7 4.7 5.4 5.1 4.0 2.2
15.0 15.0 15.0 15.0 15.0 15.0 15.0 15.0 2.1 10.2 5.5 2.8 1.4 11.4 1.7 1.0 6.9 15.0 15.0 15.0 15.0 14.0 2.9 5.2 15.0 14.0 4.7 3.1 3.7 5.6 6.0 5.1 11.8 8.7 4.9 3.2 3.7 4.1 4.1 4.2 5.6 5.1 5.5 6.0